Charlottetown, Prince Edward Island

5:34 AM ADT on May 27, 2017 (GMT -0300)
Charlottetown

Weather History for CYYG - May, 2012

Change the Weather History Date:

Thursday, May 3, 2012

  Actual Average Record
Temperature  
Mean Temperature 40 °F -  
Max Temperature 51 °F 58 °F 73 °F (1999)
Min Temperature 28 °F 40 °F 28 °F (2012)
Degree Days  
Heating Degree Days 26    
Moisture  
Dew Point 31 °F    
Average Humidity 70    
Maximum Humidity 100    
Minimum Humidity 38    
Precipitation  
Precipitation 0.00 in 0.13 in - ()
Sea Level Pressure  
Sea Level Pressure 30.16 in    
Wind  
Wind Speed 7 mph ()    
Max Wind Speed 14 mph    
Max Gust Speed 20 mph    
Visibility 15.0 miles    
Events      
Averages and records for this station are not official NWS values.
T = Trace of Precipitation, MM = Missing Value Source: Averaged Metar Reports

Daily Weather History Graph

Daily Weather History Graph

Search for Another Location

Airport or City:

Trip Planner

Search our weather history database for the weather conditions in past years. The results will help you decide how hot, cold, wet, or windy it might be!

Date:

Astronomy

May. 03, 2012 Rise Set
Actual Time 5:55 AM ADT 8:24 PM ADT
Civil Twilight 5:21 AM ADT 8:58 PM ADT
Nautical Twilight 4:39 AM ADT 9:40 PM ADT
Astronomical Twilight 3:51 AM ADT 10:29 PM ADT
Moon 5:36 PM ADT (5/3) 4:06 AM ADT (5/3)
Length of Visible Light 15h 36m
Length of Day
14h 29m
Waxing Gibbous, 91% of the Moon is Illuminated
May 3
Waxing Gibbous
May 6
Full
May 12
Last Quarter
May 20
New
May 28
First Quarter

Hourly Weather History & Observations

Time (ADT) Temp. Windchill Dew Point Humidity Pressure Visibility Wind Dir Wind Speed Gust Speed Precip Events Conditions
12:00 AM 32.0 °F 26.4 °F 28.4 °F 87% 30.23 in 15.0 mi NE 5.8 mph - N/A   Clear
2:00 AM 30.2 °F 25.4 °F 28.4 °F 93% 30.22 in 15.0 mi NW 4.6 mph - N/A   Partly Cloudy
3:00 AM 30 °F - 30 °F 98% 30.20 in 15 mi North 2.3 mph - -   Clear
3:00 AM 30.2 °F - 30.2 °F 100% 30.20 in 15.0 mi NNW 2.3 mph - N/A   Partly Cloudy
4:00 AM 30.2 °F 25.4 °F 28.4 °F 93% 30.20 in 15.0 mi NW 4.6 mph - N/A   Partly Cloudy
5:00 AM 32.0 °F 26.4 °F 30.2 °F 93% 30.19 in 15.0 mi North 5.8 mph - N/A   Partly Cloudy
6:00 AM 30.2 °F 25.4 °F 28.4 °F 93% 30.21 in 15.0 mi NNW 4.6 mph - N/A   Mostly Cloudy
7:00 AM 33.8 °F 29.6 °F 32.0 °F 93% 30.20 in 15.0 mi North 4.6 mph - N/A   Mostly Cloudy
8:00 AM 39.2 °F 32.0 °F 32.0 °F 75% 30.20 in 15.0 mi North 11.5 mph - N/A   Mostly Cloudy
9:00 AM 43 °F - 31 °F 51% 30.20 in 15 mi North 10.4 mph - -   Scattered Clouds
9:00 AM 42.8 °F 37.0 °F 30.2 °F 61% 30.20 in 15.0 mi North 10.4 mph - N/A   Mostly Cloudy
10:00 AM 44.6 °F 38.8 °F 30.2 °F 57% 30.19 in 15.0 mi North 11.5 mph - N/A   Mostly Cloudy
11:00 AM 48.2 °F - 30.2 °F 50% 30.18 in 15.0 mi North 11.5 mph - N/A   Mostly Cloudy
12:00 PM 48.2 °F - 30.2 °F 50% 30.17 in 15.0 mi North 11.5 mph 18.4 mph N/A   Mostly Cloudy
1:00 PM 48.2 °F - 32.0 °F 54% 30.17 in 15.0 mi North 12.7 mph 18.4 mph N/A   Mostly Cloudy
2:00 PM 48.2 °F - 35.6 °F 62% 30.16 in 15.0 mi North 13.8 mph - N/A   Mostly Cloudy
3:00 PM 49 °F - 31 °F 38% 30.15 in 15 mi North 11.5 mph - -   Mostly Cloudy
3:00 PM 50.0 °F - 32.0 °F 50% 30.15 in 15.0 mi North 11.5 mph 17.3 mph N/A   Mostly Cloudy
4:00 PM 48.2 °F - 32.0 °F 54% 30.13 in 15.0 mi North 12.7 mph 19.6 mph N/A   Mostly Cloudy
5:00 PM 46.4 °F 40.7 °F 32.0 °F 57% 30.13 in 15.0 mi NNE 12.7 mph - N/A   Mostly Cloudy
6:00 PM 46.4 °F 42.4 °F 28.4 °F 50% 30.11 in 15.0 mi North 8.1 mph - N/A   Mostly Cloudy
7:00 PM 42.8 °F 36.2 °F 28.4 °F 57% 30.11 in 15.0 mi NNE 12.7 mph - N/A   Mostly Cloudy
8:00 PM 41.0 °F 35.2 °F 28.4 °F 61% 30.11 in 15.0 mi NNE 9.2 mph - N/A   Scattered Clouds
8:41 PM 39.2 °F 33.0 °F - N/A% - 15.0 mi NNE 9.2 mph - N/A   Mostly Cloudy
9:00 PM 40 °F - 32 °F 64% 30.10 in 15 mi North 8.1 mph - -   Mostly Cloudy
9:00 PM 39.2 °F 33.6 °F 32.0 °F 75% 30.10 in 15.0 mi NNE 8.1 mph - N/A   Mostly Cloudy
9:25 PM 41.0 °F 34.7 °F - N/A% - 15.0 mi NNE 10.4 mph - N/A   Overcast
10:00 PM 41.0 °F 34.7 °F 37.4 °F 87% 30.11 in 15.0 mi NNE 10.4 mph - N/A   Overcast
10:35 PM 41.0 °F 36.4 °F - N/A% - 15.0 mi North 6.9 mph - N/A   Overcast
11:00 PM 41.0 °F 38.0 °F 37.4 °F 87% 30.11 in 15.0 mi NNW 4.6 mph - N/A   Overcast